This is the latest recevied weather packets stored in our database for station/object K5RWS. If no packets are shown the sender has not sent any weather packets the latest 10 day(s).
| Time | Temp. | Humidity | Pressure | Rain* | Wind** | Luminosity | Snow |
|---|---|---|---|---|---|---|---|
| 1777449782 | 10.56° C | 13% | 1019.5 hPa | 0 mm | - | 0 W/m² | - |
| 1777449478 | 11.11° C | 13% | 1020 hPa | 0 mm | - | 0 W/m² | - |
| 1777449174 | 11.11° C | 13% | 1020 hPa | 0 mm | - | 0 W/m² | - |
| 1777448870 | 11.11° C | 13% | 1019.7 hPa | 0 mm | - | 0 W/m² | - |
| 1777448567 | 11.11° C | 13% | 1019.7 hPa | 0 mm | - | 0 W/m² | - |
| 1777448264 | 11.67° C | 12% | 1019.8 hPa | 0 mm | - | 0 W/m² | - |
| 1777447960 | 11.67° C | 13% | 1019.8 hPa | 0 mm | - | 0 W/m² | - |
| 1777447655 | 11.67° C | 13% | 1020 hPa | 0 mm | - | 0 W/m² | - |
| 1777447353 | 11.67° C | 13% | 1020.2 hPa | 0 mm | - | 0 W/m² | - |
| 1777447050 | 11.67° C | 13% | 1020.1 hPa | 0 mm | - | 0 W/m² | - |
| 1777446748 | 11.67° C | 13% | 1020.2 hPa | 0 mm | - | 0 W/m² | - |
| 1777446443 | 11.67° C | 13% | 1020.2 hPa | 0 mm | - | 0 W/m² | - |
| 1777446140 | 11.67° C | 13% | 1020.2 hPa | 0 mm | - | 0 W/m² | - |
| 1777445836 | 11.11° C | 13% | 1020.2 hPa | 0 mm | - | 0 W/m² | - |
| 1777445532 | 11.11° C | 13% | 1020.3 hPa | 0 mm | - | 0 W/m² | - |
| 1777445229 | 11.67° C | 13% | 1020.2 hPa | 0 mm | - | 0 W/m² | - |
| 1777444924 | 12.22° C | 12% | 1020.2 hPa | 0 mm | - | 0 W/m² | - |
| 1777444620 | 12.78° C | 12% | 1020.2 hPa | 0 mm | - | 0 W/m² | - |
| 1777444317 | 12.78° C | 12% | 1020.3 hPa | 0 mm | - | 0 W/m² | - |
| 1777444013 | 12.22° C | 12% | 1020.1 hPa | 0 mm | - | 0 W/m² | - |
| 1777443710 | 12.22° C | 12% | 1020.2 hPa | 0 mm | - | 0 W/m² | - |
| 1777443404 | 11.67° C | 12% | 1020.2 hPa | 0 mm | - | 0 W/m² | - |
| 1777443102 | 11.11° C | 13% | 1020.2 hPa | 0 mm | - | 0 W/m² | - |
| 1777442799 | 11.67° C | 12% | 1020.3 hPa | 0 mm | - | 0 W/m² | - |
| 1777442495 | 12.78° C | 13% | 1020.1 hPa | 0 mm | - | 0 W/m² | - |
* Rain latest hour (hover to see other rain measurements)
** Current wind speed in m/s (hover to see current wind gust speed)